#timestamp,LO_Frequency,Hit,StdDev 
1634652015.2,286046999.5,N
1634652035.0,286046997.3,N
1634652035.9,286046997.3,N
1634652055.8,286046999.6,N
1634652075.6,286046994.9,Y
1634652095.4,286046998.5,P
1634652115.3,286046999.1,N
1634652135.1,286046997.6,P
1634652155.9,286046997.4,Y
1634652175.7,286046999.5,P
1634652195.5,286046996.7,P
1634652215.4,286046996.8,N
1634652235.2,286046996.5,Y
1634652255.1,286047000.5,P
1634652256.0,286047000.5,N
1634652275.8,286047001.1,N
1634652295.6,286046999.6,N
1634652315.5,286046997.0,N
1634652335.3,286046997.8,N
1634652355.1,286046997.1,N
1634652375.9,286046998.9,N
1634652395.7,286046999.1,N
1634652415.6,286046998.9,N
1634652435.4,286046996.9,N
1634652455.2,286046996.8,N
1634652475.1,286046997.6,N
1634652476.0,286046997.6,N
1634652495.8,286046998.0,N
1634652515.6,286046998.0,N
1634652535.5,286046997.2,N
1634652555.3,286046995.1,Y
1634652575.2,286046997.1,P
1634652595.9,286046999.2,N
1634652615.7,286046997.0,P
1634652635.6,286046996.5,Y
1634652655.4,286047000.7,P
1634652675.3,286046998.2,N
1634652695.1,286046998.4,N
1634652696.0,286046998.4,N
1634652715.8,286046998.4,N
1634652735.7,286046999.2,N
1634652755.5,286046999.0,N
1634652775.3,286046997.2,Y
1634652795.2,286046998.1,P
1634652815.0,286046998.5,P
1634652815.9,286046998.5,P
1634652835.8,286046999.0,Y
1634652855.6,286047001.2,P
1634652875.4,286046999.8,N
1634652895.3,286047001.0,N
1634652915.1,286046999.1,N
1634652935.9,286047000.7,N
1634652955.7,286047001.2,N
1634652975.5,286046999.3,N
1634652995.4,286046999.5,N
1634653015.2,286046998.8,N
1634653035.0,286046999.2,N
1634653035.9,286046999.2,N
1634653055.8,286046997.2,Y
1634653075.6,286046999.6,P
1634653095.5,286046997.0,P
1634653115.3,286046995.5,P
1634653135.1,286046997.5,N
1634653155.9,286046997.9,N
1634653175.7,286046997.4,N
1634653195.5,286046995.3,Y
1634653215.4,286047000.4,P
1634653235.2,286047000.3,N
1634653255.1,286046999.3,N
1634653256.0,286046999.3,N
1634653275.8,286046997.1,Y
1634653295.6,286046999.2,P
1634653315.5,286046996.7,P
1634653335.3,286046999.6,N
1634653355.2,286046999.5,N
1634653375.9,286046998.1,N
1634653395.7,286046998.6,N
1634653415.6,286046998.9,N
1634653435.4,286046999.2,N
1634653455.2,286046998.8,N
1634653475.1,286046999.0,N
1634653476.0,286046999.0,N
1634653495.8,286046998.8,N
1634653515.7,286046998.2,N
1634653535.5,286046996.6,Y
1634653555.3,286046998.6,P
1634653575.2,286046999.3,P
1634653595.0,286046999.1,P
1634653595.9,286046999.1,Y
1634653615.7,286047000.7,P
1634653635.6,286047000.8,N
1634653655.4,286047000.3,N
1634653675.3,286047000.3,N
1634653695.1,286046998.2,N
1634653696.0,286046998.2,N
1634653715.8,286046998.6,N
1634653735.7,286047000.7,N
1634653755.5,286047001.0,N
1634653775.3,286047000.6,N
1634653795.2,286046998.3,N
1634653815.0,286046999.8,N
1634653815.9,286046999.8,N
1634653835.8,286046999.9,N
1634653855.6,286047000.0,N
1634653875.4,286047000.4,N
1634653895.3,286047001.2,N
1634653915.1,286047000.5,N
1634653935.9,286046998.8,N
1634653955.7,286046998.3,N
1634653975.5,286046998.6,N
1634653995.4,286046998.1,N
1634654015.2,286047002.8,N
1634654035.0,286046998.6,N
1634654035.9,286046998.6,N
1634654055.8,286047000.3,N
1634654075.6,286047000.9,N
1634654095.5,286047002.8,N
1634654115.3,286047002.8,N
1634654135.1,286047002.6,N
1634654155.9,286046999.7,N
1634654175.7,286047000.1,N
1634654195.5,286047000.5,N
1634654215.4,286047001.1,N
1634654235.2,286047000.0,N
1634654255.0,286047000.1,N
1634654256.0,286047000.1,N
1634654275.8,286047002.7,N
1634654295.6,286047000.2,N
1634654315.5,286047002.7,N
1634654335.3,286046999.7,N
1634654355.1,286047001.9,N
1634654375.9,286047002.5,N
1634654395.7,286046999.8,N
1634654415.6,286047001.0,N
1634654435.4,286047000.9,N
1634654455.2,286047000.3,N
1634654475.1,286047000.9,N
1634654476.0,286047000.9,N
1634654495.8,286047001.1,N
1634654515.6,286047000.9,N
1634654535.5,286047000.3,N
1634654555.3,286047001.2,N
1634654575.2,286047000.0,N
1634654595.9,286047002.4,N
1634654615.7,286047002.8,N
1634654635.6,286047002.1,N
1634654655.4,286047002.4,N
1634654675.2,286047001.9,N
1634654695.1,286047004.0,Y
1634654696.0,286047004.0,P
1634654715.8,286047000.1,N
1634654735.7,286047000.9,N
1634654755.5,286047000.2,N
1634654775.3,286047000.3,N
1634654795.2,286047002.4,N
1634654815.0,286047002.3,N
1634654815.9,286047002.3,N
1634654835.8,286047001.6,N
1634654855.6,286046999.7,N
1634654875.4,286047002.0,N
1634654895.3,286047002.2,N
1634654915.1,286047002.1,N
1634654935.8,286047001.4,N
1634654955.7,286047003.8,Y
1634654975.5,286047002.3,P
1634654995.4,286047001.3,P
1634655015.2,286047001.8,P
1634655035.0,286047002.0,Y
1634655035.9,286047002.0,P
1634655055.8,286047000.9,P
1634655075.6,286047002.2,P
1634655095.5,286047000.2,N
1634655115.3,286047000.8,N
1634655135.1,286047000.5,N
1634655155.9,286047002.6,Y
1634655175.7,286047000.6,P
1634655195.5,286047000.8,N
1634655215.4,286047000.0,N
1634655235.2,286047002.4,Y
1634655255.1,286047002.8,P
1634655256.0,286047002.8,N
1634655275.8,286047001.1,N
1634655295.6,286047002.3,N
1634655315.5,286047001.1,N
1634655335.3,286047000.1,N
1634655355.2,286047000.0,N
1634655375.9,286047001.0,N
1634655395.7,286047002.8,N
1634655415.6,286047002.1,N
1634655435.4,286047004.3,Y
1634655455.2,286047000.4,P
1634655475.1,286047000.2,N
1634655476.0,286047000.2,N
1634655495.8,286046999.8,N
1634655515.7,286047001.6,N
1634655535.5,286047002.6,Y
1634655555.3,286047002.6,P
1634655575.2,286047002.0,N
1634655595.0,286047001.5,N
1634655595.9,286047001.5,N
